Location: Fatehalanka
(16.3139°N, 80.8379°E)
Time: 07:51:53
(UTC+00:00)

Cosmos 1190 Rocket - Pass Details

Date: 14 May 2026
Orbit: 752 x 775 km, 74.1° (Epoch: 6 June)

Event Time Altitude Azimuth Distance (km) Brightness Sun altitude
Rises 13:35:53 0° 354° (N) 3,215 7.6 -9.0°
Reaches altitude 10° 13:38:20 10° 359° (N) 2,285 6.8 -9.5°
Maximum altitude 13:43:22 52° 76° (ENE) 934 4.2 -10.6°
Drops below altitude 10° 13:48:22 10° 152° (SSE) 2,270 6.0 -11.7°
Enters shadow 13:48:45 - 153° (SSE) 2,414 6.1 -11.8°
